DELTA 1 DEB, 27575

Orbit data source: Space-Track

DELTA 1 DEB, 27575 is space debris in LEO originally from a launch on Thu, 14 Jul 1977 UTC launched from the Air Force Eastern Test Range (AFETR). Debris objects in space refer to the collection of defunct objects orbiting the Earth. Examples of debris include non-operational satellites, rocket bodies, and fragments generated from explosions, collisions, or faulty payload assembly.

Loading next visibility...
Identifier
27575, 1977-065GG
Orbit
LEO
Country
Flag of USUS
Related business
Manufacturer
Unknown
Mission
Spacecraft
Bus & Motor
Unknown
Mass
Unknown
Launch date (UTC)
1977-07-14 (48 years ago)
Launch vehicle
Unknown
Launch site
Air Force Eastern Test Range (AFETR)
Object type
Payload
Rocket body
Debris
Shape & HBR
Unknown shape, 0.1 m
Radar Cross Section
Small (<0.1 m²)

Expand to show TLE details & history
Last TLE update: 23 hours ago

TLE from 23 hours ago
0 DELTA 1 DEB
1 27575U 77065GG  25349.23466640  .00008531  00000-0  31768-2 0  9999
2 27575  29.1182 321.8326 0417172 345.9144 127.5755 13.92068835366033
Epoch: 2025-12-15T05:37Z
TLE epoch observation values (Epoch: 2025-12-15T05:37:55.176Z)
Latitude
25.76429°
Longitude
-86.33665°
Altitude
1,113.344 km
Speed
7.203 km/s
True Right ascension
05h 29m 07s
True Declination
25° 38' 11"
Sunlit
Object was in full shadow at epoch
Visualization orbit readout
Latitude
Unknown
Longitude
Unknown
Altitude
Unknown
Speed
Unknown
Apparent Right ascension
Unknown
Apparent Declination
Unknown
Sunlit
N/A
Visualization observer readout
Local Sidereal Time
02:53:20
Azimuth
Unknown
Elevation
Unknown
Doppler factor
Unknown
Orbital elements
Apogee altitude
1,229.975 km
Perigee altitude
620.618 km
Semi-major axis
7,303.433 km
Eccentricity
0.04172
Inclination
29.1182°
RAAN
321.8326°
Arg. of periapsis
345.9144°
True anomaly
131.24484°
Mean anomaly
127.5755°
Eccentric anomaly
129.42192°
Mean motion
3.47738 °/min
Orbital period
103.53 mins
BSTAR
0.0031768
Loading maneuver chart data...
Computing Atmospheric mass density...

Documentation

Showing up to 5 results
|